• Em Portugal
  • Lista de países
  • Para 7 dias
  • Temperatura da água
  • Mapas de satélite
  • Mapa do tempo
  • Widgets de tempo
  • user-avatar
    Iniciar Sessão

    Previsão horária em Bregenz

    Hoje, 25 Maio, Sexta-feira

    Tempo Temperatura Precipitação Vento Pressão Humidade
    00:00 +8°C° 0 mm 1 m/s 647 mmHg 90%
    01:00 +7°C° 0 mm 2 m/s 647 mmHg 89%
    02:00 +7°C° 0 mm 2 m/s 647 mmHg 89%
    03:00 +8°C° 0 mm 1 m/s 647 mmHg 89%
    04:00 +7°C° 0 mm 1 m/s 647 mmHg 89%
    05:00 +9°C° 0 mm 1 m/s 647 mmHg 86%
    06:00 +10°C° 0 mm 1 m/s 648 mmHg 82%
    07:00 +12°C° 0 mm 1 m/s 648 mmHg 79%
    08:00 +14°C° 0 mm 1 m/s 649 mmHg 70%
    09:00 +16°C° 0 mm 1 m/s 649 mmHg 61%
    10:00 +19°C° 0 mm 1 m/s 650 mmHg 52%
    11:00 +20°C° 0 mm 1 m/s 650 mmHg 49%
    12:00 +20°C° 0 mm 1 m/s 650 mmHg 46%
    13:00 +21°C° 0 mm 1 m/s 650 mmHg 43%
    14:00 +21°C° 0 mm 1 m/s 650 mmHg 45%
    15:00 +20°C° 0 mm 2 m/s 649 mmHg 46%
    16:00 +20°C° 0 mm 2 m/s 649 mmHg 47%
    17:00 +18°C° 0 mm 2 m/s 649 mmHg 55%
    18:00 +18°C° 0 mm 1 m/s 649 mmHg 64%
    19:00 +15°C° 0 mm 1 m/s 649 mmHg 72%
    20:00 +14°C° 0 mm 1 m/s 649 mmHg 77%
    21:00 +12°C° 0 mm 1 m/s 648 mmHg 81%
    22:00 +11°C° 0 mm 1 m/s 648 mmHg 85%
    23:00 +10°C° 0 mm 1 m/s 648 mmHg 84%

    Amanhã, 26 Maio, Sábado

    Tempo Temperatura Precipitação Vento Pressão Humidade
    00:00 +10°C° 0 mm 1 m/s 648 mmHg 84%
    01:00 +10°C° 0 mm 1 m/s 648 mmHg 83%
    02:00 +9°C° 0 mm 1 m/s 648 mmHg 82%
    03:00 +9°C° 0 mm 1 m/s 648 mmHg 81%
    04:00 +9°C° 0 mm 1 m/s 648 mmHg 80%
    05:00 +11°C° 0 mm 1 m/s 648 mmHg 76%
    06:00 +12°C° 0 mm 1 m/s 649 mmHg 73%
    07:00 +14°C° 0 mm 1 m/s 650 mmHg 69%
    08:00 +16°C° 0 mm 1 m/s 650 mmHg 63%
    09:00 +19°C° 0 mm 1 m/s 651 mmHg 56%
    10:00 +21°C° 0 mm 1 m/s 651 mmHg 49%
    11:00 +22°C° 0,1 mm 1 m/s 651 mmHg 47%
    12:00 +23°C° 0,1 mm 2 m/s 651 mmHg 45%
    13:00 +23°C° 0,1 mm 2 m/s 652 mmHg 42%
    14:00 +23°C° 0,1 mm 2 m/s 651 mmHg 45%
    15:00 +23°C° 0,1 mm 2 m/s 651 mmHg 47%
    16:00 +23°C° 0,1 mm 2 m/s 651 mmHg 49%
    17:00 +20°C° 0,2 mm 2 m/s 651 mmHg 58%
    18:00 +19°C° 0,2 mm 1 m/s 651 mmHg 68%
    19:00 +18°C° 0,2 mm 1 m/s 650 mmHg 77%
    20:00 +16°C° 0 mm 1 m/s 650 mmHg 79%
    21:00 +14°C° 0 mm 1 m/s 650 mmHg 80%
    22:00 +13°C° 0 mm 1 m/s 650 mmHg 82%
    23:00 +13°C° 0 mm 1 m/s 650 mmHg 80%

    Depois de amanhã, 27 Maio, Domingo

    Tempo Temperatura Precipitação Vento Pressão Humidade
    00:00 +12°C° 0 mm 1 m/s 649 mmHg 79%
    01:00 +12°C° 0 mm 1 m/s 649 mmHg 78%
    02:00 +12°C° 0 mm 1 m/s 649 mmHg 77%
    03:00 +12°C° 0 mm 1 m/s 649 mmHg 76%
    04:00 +12°C° 0 mm 1 m/s 649 mmHg 75%
    05:00 +13°C° 0 mm 1 m/s 649 mmHg 74%
    06:00 +14°C° 0 mm 1 m/s 649 mmHg 72%
    07:00 +15°C° 0 mm 1 m/s 649 mmHg 71%
    08:00 +18°C° 0 mm 1 m/s 650 mmHg 63%
    09:00 +20°C° 0 mm 1 m/s 650 mmHg 56%
    10:00 +22°C° 0 mm 1 m/s 651 mmHg 48%
    11:00 +23°C° 0 mm 1 m/s 651 mmHg 47%
    12:00 +24°C° 0 mm 1 m/s 651 mmHg 45%
    13:00 +24°C° 0 mm 2 m/s 651 mmHg 43%
    14:00 +24°C° 0,4 mm 2 m/s 650 mmHg 47%
    15:00 +23°C° 0,4 mm 2 m/s 650 mmHg 52%
    16:00 +23°C° 0,4 mm 2 m/s 650 mmHg 56%
    17:00 +20°C° 1 mm 2 m/s 649 mmHg 65%
    18:00 +19°C° 1 mm 1 m/s 649 mmHg 73%
    19:00 +18°C° 1 mm 1 m/s 649 mmHg 82%
    20:00 +16°C° 0,4 mm 1 m/s 649 mmHg 83%
    21:00 +14°C° 0,4 mm 1 m/s 649 mmHg 84%
    22:00 +13°C° 0,4 mm 1 m/s 649 mmHg 85%
    23:00 +13°C° 0,1 mm 2 m/s 649 mmHg 84%

    28 Maio, Segunda-feira

    Tempo Temperatura Precipitação Vento Pressão Humidade
    00:00 +13°C° 0,1 mm 2 m/s 648 mmHg 84%
    01:00 +12°C° 0,1 mm 2 m/s 648 mmHg 83%
    02:00 +12°C° 0 mm 2 m/s 648 mmHg 83%
    03:00 +12°C° 0 mm 2 m/s 648 mmHg 83%
    04:00 +11°C° 0 mm 1 m/s 648 mmHg 84%
    05:00 +13°C° 0 mm 1 m/s 648 mmHg 81%
    06:00 +14°C° 0 mm 1 m/s 649 mmHg 78%
    07:00 +15°C° 0 mm 1 m/s 649 mmHg 75%
    08:00 +18°C° 0,1 mm 1 m/s 649 mmHg 68%
    09:00 +20°C° 0,1 mm 1 m/s 650 mmHg 61%
    10:00 +22°C° 0,1 mm 1 m/s 650 mmHg 54%
    11:00 +22°C° 0,3 mm 1 m/s 650 mmHg 53%
    12:00 +22°C° 0,3 mm 1 m/s 650 mmHg 53%
    13:00 +23°C° 0,3 mm 1 m/s 650 mmHg 52%
    14:00 +23°C° 0,7 mm 1 m/s 650 mmHg 55%
    15:00 +22°C° 0,7 mm 1 m/s 649 mmHg 58%
    16:00 +21°C° 0,7 mm 2 m/s 649 mmHg 60%
    17:00 +21°C° 0,4 mm 1 m/s 649 mmHg 67%
    18:00 +20°C° 0,4 mm 1 m/s 648 mmHg 73%
    19:00 +18°C° 0,4 mm 1 m/s 648 mmHg 80%
    20:00 +16°C° 0 mm 1 m/s 648 mmHg 82%
    21:00 +15°C° 0 mm 2 m/s 648 mmHg 83%
    22:00 +13°C° 0 mm 2 m/s 648 mmHg 85%
    23:00 +13°C° 0 mm 2 m/s 647 mmHg 85%

    29 Maio, Terça-feira

    Tempo Temperatura Precipitação Vento Pressão Humidade
    00:00 +13°C° 0 mm 2 m/s 647 mmHg 84%
    01:00 +13°C° 0 mm 2 m/s 647 mmHg 84%
    02:00 +12°C° 0 mm 2 m/s 647 mmHg 84%
    03:00 +12°C° 0 mm 2 m/s 647 mmHg 84%
    04:00 +10°C° 0 mm 2 m/s 647 mmHg 84%
    05:00 +13°C° 0 mm 2 m/s 647 mmHg 80%
    06:00 +14°C° 0 mm 1 m/s 647 mmHg 76%
    07:00 +15°C° 0 mm 1 m/s 648 mmHg 72%
    08:00 +18°C° 0 mm 1 m/s 648 mmHg 65%
    09:00 +20°C° 0 mm 1 m/s 648 mmHg 58%
    10:00 +23°C° 0 mm 1 m/s 649 mmHg 51%
    11:00 +23°C° 0 mm 1 m/s 649 mmHg 49%
    12:00 +24°C° 0 mm 2 m/s 649 mmHg 47%
    13:00 +25°C° 0 mm 2 m/s 648 mmHg 45%
    14:00 +24°C° 0,1 mm 2 m/s 648 mmHg 47%
    15:00 +24°C° 0,1 mm 2 m/s 648 mmHg 50%
    16:00 +24°C° 0,1 mm 2 m/s 648 mmHg 52%
    17:00 +22°C° 0,8 mm 1 m/s 647 mmHg 61%
    18:00 +20°C° 0,8 mm 1 m/s 647 mmHg 71%
    19:00 +19°C° 0,8 mm 1 m/s 646 mmHg 80%
    20:00 +16°C° 0,7 mm 1 m/s 646 mmHg 82%
    21:00 +15°C° 0,7 mm 1 m/s 646 mmHg 84%
    22:00 +14°C° 0,7 mm 2 m/s 646 mmHg 86%
    23:00 +14°C° 0 mm 2 m/s 646 mmHg 85%

    30 Maio, Quarta-feira

    Tempo Temperatura Precipitação Vento Pressão Humidade
    00:00 +13°C° 0 mm 2 m/s 646 mmHg 85%
    01:00 +13°C° 0 mm 2 m/s 646 mmHg 85%
    02:00 +12°C° 0 mm 2 m/s 645 mmHg 84%
    03:00 +12°C° 0 mm 2 m/s 645 mmHg 84%
    04:00 +10°C° 0 mm 2 m/s 645 mmHg 84%
    05:00 +13°C° 0 mm 2 m/s 645 mmHg 81%
    06:00 +14°C° 0 mm 1 m/s 646 mmHg 77%
    07:00 +16°C° 0 mm 1 m/s 646 mmHg 74%
    08:00 +18°C° 0,1 mm 1 m/s 647 mmHg 67%
    09:00 +20°C° 0,1 mm 1 m/s 647 mmHg 60%
    10:00 +22°C° 0,1 mm 1 m/s 647 mmHg 52%
    11:00 +23°C° 0,1 mm 1 m/s 648 mmHg 50%
    12:00 +24°C° 0,1 mm 2 m/s 648 mmHg 48%
    13:00 +25°C° 0,1 mm 2 m/s 648 mmHg 46%
    14:00 +24°C° 0,5 mm 2 m/s 648 mmHg 49%
    15:00 +24°C° 0,5 mm 1 m/s 647 mmHg 52%
    16:00 +23°C° 0,5 mm 1 m/s 647 mmHg 55%
    17:00 +22°C° 1 mm 1 m/s 647 mmHg 64%
    18:00 +20°C° 1 mm 1 m/s 647 mmHg 72%
    19:00 +18°C° 1 mm 1 m/s 646 mmHg 80%
    20:00 +16°C° 0,5 mm 1 m/s 646 mmHg 83%
    21:00 +15°C° 0,5 mm 1 m/s 646 mmHg 85%
    22:00 +14°C° 0,5 mm 1 m/s 646 mmHg 87%
    23:00 +13°C° 0,1 mm 1 m/s 646 mmHg 87%
    Mostrar mais